Weather History for KEKN - February, 2013

Change the Weather History Date:

Friday, February 1, 2013

  Actual Average Record
Temperature  
Mean Temperature 11 °F 30 °F  
Max Temperature 25 °F 40 °F 68 °F (1988)
Min Temperature -4 °F 20 °F -12 °F (1965)
Degree Days  
Heating Degree Days 54 35  
Month to date heating degree days 54 35  
Since 1 July heating degree days 3307 3436  
Cooling Degree Days 0 0  
Month to date cooling degree days 0 0  
Year to date cooling degree days 0 0  
Moisture  
Dew Point 6 °F    
Average Humidity 73    
Maximum Humidity 88    
Minimum Humidity 58    
Precipitation  
Precipitation 0.08 in 0.11 in 0.92 in (1957)
Month to date precipitation 0.08 0.11  
Year to date precipitation 4.59 3.34  
Snow  
Snow 0.00 in - - ()
Since 1 September snowfall 38.1  
Snow Depth 5.00 in    
Sea Level Pressure  
Sea Level Pressure 30.08 in    
Wind  
Wind Speed 9 mph (West)    
Max Wind Speed 28 mph    
Max Gust Speed 39 mph    
Visibility 4 miles    
Events Fog , Snow    
T = Trace of Precipitation, MM = Missing Value Source: NWS Daily Summary

Daily Weather History Graph

Daily Weather History Graph

Search for Another Location

Airport or City:

Trip Planner

Search our weather history database for the weather conditions in past years. The results will help you decide how hot, cold, wet, or windy it might be!

Date:

Astronomy

Feb. 01, 2013 Rise Set
Actual Time 7:25 AM EST 5:41 PM EST
Civil Twilight 6:57 AM EST 6:09 PM EST
Nautical Twilight 6:25 AM EST 6:41 PM EST
Astronomical Twilight 5:54 AM EST 7:12 PM EST
Moon 11:42 PM EST (2/1) 10:01 AM EST (2/1)
Length of Visible Light 11h 11m
Length of Day
10h 15m
Waning Gibbous, 70% of the Moon is Illuminated
Feb 1
Waning Gibbous
Feb 3
Last Quarter
Feb 10
New
Feb 17
First Quarter
Feb 25
Full

Hourly Weather History & Observations

Time (EST) Temp. Windchill Dew Point Humidity Pressure Visibility Wind Dir Wind Speed Gust Speed Precip Events Conditions
12:10 AM 24.8 °F 20.5 °F 19.4 °F 80% 29.79 in 1.0 mi SW 3.5 mph - 0.00 in Snow Light Snow
12:24 AM 24.8 °F - 19.4 °F 80% 29.78 in 0.8 mi Calm Calm - 0.01 in Snow Light Snow
12:51 AM 24.1 °F 15.2 °F 19.0 °F 81% 29.86 in 0.8 mi WNW 8.1 mph - 0.02 in Snow Light Snow
1:10 AM 23.0 °F 15.8 °F 19.4 °F 86% 29.77 in 1.0 mi WNW 5.8 mph - 0.01 in Snow Light Snow
1:32 AM 24.8 °F - 19.4 °F 80% 29.76 in 1.8 mi Calm Calm - 0.02 in Snow Light Snow
1:51 AM 23.0 °F - 19.9 °F 88% 29.85 in 1.0 mi Calm Calm - 0.02 in Snow Light Snow
2:08 AM 24.8 °F 15.3 °F 19.4 °F 80% 29.75 in 1.0 mi NNW 9.2 mph - 0.00 in Snow Light Snow
2:21 AM 23.0 °F 10.6 °F 19.4 °F 86% 29.77 in 0.8 mi WNW 13.8 mph - 0.00 in Snow Light Snow
2:28 AM 23.0 °F 13.1 °F 19.4 °F 86% 29.76 in 0.5 mi WNW 9.2 mph - 0.01 in Fog , Snow Snow
2:49 AM 23.0 °F 10.1 °F 17.6 °F 80% 29.76 in 1.0 mi West 15.0 mph - 0.02 in Snow Light Snow
2:51 AM 23.0 °F 12.4 °F 18.0 °F 81% 29.85 in 1.0 mi WNW 10.4 mph - 0.02 in Snow Light Snow
3:14 AM 23.0 °F 11.1 °F 17.6 °F 80% 29.79 in 0.5 mi West 12.7 mph 19.6 mph 0.01 in Snow Snow
3:22 AM 19.4 °F 1.8 °F 15.8 °F 86% 29.83 in 0.2 mi WNW 25.3 mph 39.1 mph 0.01 in Fog , Snow Heavy Snow
3:34 AM 19.4 °F 3.2 °F 15.8 °F 86% 29.84 in 0.5 mi WNW 20.7 mph 27.6 mph 0.01 in Fog , Snow Snow
3:51 AM 19.0 °F 3.6 °F 14.0 °F 81% 29.95 in 0.5 mi NW 18.4 mph 32.2 mph 0.01 in Snow Snow
4:27 AM 17.6 °F 0.5 °F 12.2 °F 79% 29.87 in 0.8 mi West 21.9 mph 31.1 mph 0.01 in Snow Light Snow
4:51 AM 18.0 °F 2.6 °F 12.0 °F 78% 29.99 in 1.0 mi WNW 17.3 mph 24.2 mph 0.01 in Snow Light Snow
5:12 AM 17.6 °F 3.7 °F 10.4 °F 73% 29.89 in 2.0 mi West 13.8 mph 24.2 mph 0.00 in Snow Light Snow
5:20 AM 17.6 °F 6.4 °F 8.6 °F 68% 29.90 in 3.0 mi WNW 9.2 mph 20.7 mph 0.00 in Snow Light Snow
5:28 AM 17.6 °F 5.0 °F 10.4 °F 73% 29.90 in 2.0 mi West 11.5 mph 19.6 mph 0.00 in Snow Light Snow
5:45 AM 17.6 °F 3.2 °F 8.6 °F 68% 29.92 in 1.0 mi West 15.0 mph 27.6 mph 0.00 in Snow Light Snow
5:46 AM 15.8 °F 0.9 °F 8.6 °F 73% 29.92 in 0.8 mi West 15.0 mph 27.6 mph 0.00 in Snow Light Snow
5:51 AM 16.0 °F 0.1 °F 10.0 °F 77% 30.03 in 0.5 mi West 17.3 mph 27.6 mph 0.00 in Snow Snow
6:08 AM 15.8 °F 0.9 °F 8.6 °F 73% 29.94 in 1.0 mi WNW 15.0 mph 34.5 mph 0.00 in Snow Light Snow
6:24 AM 14.0 °F -3.4 °F 8.6 °F 79% 29.96 in 0.5 mi West 19.6 mph 28.8 mph 0.00 in Snow Snow
6:42 AM 12.2 °F -2.5 °F 5.0 °F 73% 29.98 in 2.0 mi West 12.7 mph 33.4 mph 0.00 in Snow Light Snow
6:51 AM 12.9 °F -4.4 °F 5.0 °F 71% 30.09 in 1.8 mi West 18.4 mph 25.3 mph 0.00 in Snow Light Snow
7:17 AM 12.2 °F -3.1 °F 3.2 °F 67% 30.01 in 2.5 mi West 13.8 mph 27.6 mph 0.00 in Snow Light Snow
7:33 AM 10.4 °F -4.8 °F 3.2 °F 73% 30.03 in 0.8 mi West 12.7 mph 24.2 mph 0.00 in Snow Light Snow
7:51 AM 10.9 °F -6.5 °F 3.0 °F 70% 30.17 in 0.8 mi West 17.3 mph 28.8 mph 0.00 in Snow Light Snow
8:22 AM 10.4 °F -4.1 °F 3.2 °F 73% 30.07 in 0.5 mi West 11.5 mph 21.9 mph 0.00 in Snow Snow
8:47 AM 10.4 °F -4.1 °F 1.4 °F 67% 30.09 in 1.0 mi West 11.5 mph 21.9 mph 0.00 in Snow Light Snow
8:51 AM 10.0 °F -1.9 °F 1.9 °F 70% 30.22 in 1.2 mi West 8.1 mph 21.9 mph 0.00 in Snow Light Snow
9:13 AM 10.4 °F -1.5 °F 3.2 °F 73% 30.11 in 0.8 mi West 8.1 mph 23.0 mph 0.00 in Snow Light Snow
9:20 AM 10.4 °F -0.4 °F 3.2 °F 73% 30.11 in 0.5 mi Variable 6.9 mph - 0.00 in Snow Snow
9:43 AM 10.4 °F -1.5 °F 1.4 °F 67% 30.13 in 1.2 mi West 8.1 mph 21.9 mph 0.00 in Snow Light Snow
9:51 AM 9.0 °F -6.6 °F -0.0 °F 67% 30.25 in 2.0 mi West 12.7 mph 25.3 mph 0.00 in Snow Light Snow
10:11 AM 10.4 °F -0.4 °F -0.4 °F 62% 30.14 in 4.0 mi Variable 6.9 mph 19.6 mph 0.00 in Snow Light Snow
10:51 AM 9.0 °F -5.1 °F -0.9 °F 64% 30.29 in 7.0 mi WSW 10.4 mph 21.9 mph 0.00 in   Overcast
11:03 AM 10.4 °F -1.5 °F -0.4 °F 62% 30.17 in 6.0 mi WSW 8.1 mph - 0.00 in Snow Light Snow
11:18 AM 10.4 °F -5.4 °F -0.4 °F 62% 30.18 in 9.0 mi West 13.8 mph 20.7 mph 0.00 in   Overcast
11:51 AM 10.9 °F -2.6 °F -0.9 °F 59% 30.29 in 7.0 mi West 10.4 mph 21.9 mph 0.00 in Snow Light Snow
12:26 PM 10.4 °F -5.4 °F 1.4 °F 67% 30.18 in 2.5 mi WSW 13.8 mph 20.7 mph 0.00 in Snow Light Snow
12:35 PM 12.2 °F 2.9 °F 1.4 °F 62% 30.19 in 1.8 mi West 5.8 mph 19.6 mph 0.00 in Snow Light Snow
12:39 PM 12.2 °F -1.0 °F 1.4 °F 62% 30.19 in 3.0 mi West 10.4 mph - 0.00 in Snow Light Snow
12:51 PM 10.9 °F -1.8 °F 1.0 °F 64% 30.30 in 4.0 mi WSW 9.2 mph 17.3 mph 0.00 in Snow Light Snow
1:09 PM 10.4 °F -4.8 °F -0.4 °F 62% 30.19 in 8.0 mi WSW 12.7 mph 20.7 mph 0.00 in   Overcast
1:20 PM 12.2 °F -2.5 °F -0.4 °F 57% 30.19 in 9.0 mi West 12.7 mph 18.4 mph 0.00 in   Overcast
1:51 PM 10.9 °F -4.7 °F -0.0 °F 61% 30.32 in 8.0 mi WSW 13.8 mph 21.9 mph 0.00 in   Overcast
2:44 PM 12.2 °F -2.5 °F -0.4 °F 57% 30.21 in 6.0 mi West 12.7 mph 18.4 mph 0.00 in Snow Light Snow
2:51 PM 12.0 °F -0.4 °F -0.0 °F 59% 30.32 in 5.0 mi WSW 9.2 mph 19.6 mph 0.00 in Snow Light Snow
3:14 PM 12.2 °F 4.3 °F -0.4 °F 57% 30.21 in 8.0 mi West 4.6 mph - 0.00 in Snow Light Snow
3:51 PM 12.0 °F 0.5 °F -0.0 °F 59% 30.34 in 9.0 mi West 8.1 mph - 0.00 in   Overcast
4:51 PM 12.0 °F 1.5 °F -0.0 °F 59% 30.35 in 10.0 mi West 6.9 mph - 0.00 in   Overcast
5:51 PM 10.9 °F 4.7 °F 1.0 °F 64% 30.37 in 10.0 mi West 3.5 mph - N/A   Overcast
6:51 PM 10.9 °F 2.9 °F -0.9 °F 59% 30.39 in 10.0 mi SSW 4.6 mph - N/A   Overcast
7:51 PM 9.0 °F - -0.9 °F 64% 30.40 in 10.0 mi Calm Calm - N/A   Mostly Cloudy
8:29 PM 6.8 °F - -0.4 °F 72% 30.27 in 10.0 mi Calm Calm - N/A   Scattered Clouds
8:51 PM 3.2 °F - -2.2 °F 78% 30.27 in 10.0 mi Calm Calm - N/A   Partly Cloudy
9:51 PM 1.0 °F - -2.9 °F 83% 30.43 in 10.0 mi Calm Calm - N/A   Clear
10:51 PM -2.0 °F - -6.0 °F 83% 30.43 in 9.0 mi Calm Calm - N/A   Clear
11:51 PM -2.9 °F - -7.1 °F 82% 30.43 in 9.0 mi Calm Calm - N/A   Clear